Home   Weather   Iasi   Past weeks

Flag for Romania Past Weather in Iasi, Romania — Yesterday and Last 2 Weeks

Now
52 °F

Clear.


Feels Like: 47 °F
Forecast: 40 / 49 °F
Wind: 13 mph from West

Location: Iasi Airport

Current Time: Dec 10, 2016 at 10:50:07 pm

Latest Report: Dec 10, 2016 at 10:30 pm


Visibility: 10 mi

Pressure: 29.92 "Hg

Humidity: 47%

Dew Point: 32 °F

Location of IasiLocation

Past Weather in Iasi — Graph

°F

Iasi Temperature Yesterday

Maximum temperature yesterday: 54 °F (at 2:00 pm)
Minimum temperature yesterday: 43 °F (at 7:00 pm)
Average temperature yesterday: 47 °F

High & Low Weather Summary for the Past Weeks

 TemperatureHumidityPressure
High54 °F (Dec 9, 2:00 pm)100% (Nov 27, 6:00 am)30.72 "Hg (Nov 27, 6:00 am)
Low18 °F (Dec 8, 7:00 am)36% (Dec 6, 2:30 pm)29.33 "Hg (Dec 2, 1:30 pm)
Average35 °F68%30.13 "Hg
* Reported Nov 25 9:00 pm — Dec 10 9:30 pm, Iasi, Weather by CustomWeather, © 2016

Note: Actual official high and low records may vary slightly from our data, if they occured in-between our weather recording intervals... More about our weather records

Advertising

Iasi Weather History for the Previous 24 Hours

Scroll right to see more
 ConditionsComfort  
Time TempWeatherWind HumidityBarometerVisibility
9:30 pm
Sat, Dec 10
52 °FPassing clouds.14 mph50%29.92 "HgN/A
9:00 pm52 °FPassing clouds.15 mph50%29.92 "HgN/A
8:30 pm52 °FPassing clouds.13 mph50%29.92 "HgN/A
8:00 pm52 °FPassing clouds.13 mph50%29.92 "HgN/A
7:30 pm52 °FPassing clouds.14 mph50%29.95 "HgN/A
7:00 pm52 °FPassing clouds.13 mph47%29.95 "HgN/A
6:30 pm52 °FPassing clouds.12 mph47%29.95 "HgN/A
6:00 pm48 °FClear.7 mph54%29.95 "Hg10 mi
5:30 pm48 °FPassing clouds.7 mph50%29.95 "HgN/A
5:00 pm48 °FPassing clouds.5 mph50%29.98 "HgN/A
4:30 pm48 °FClear.6 mph50%29.98 "Hg10 mi
4:00 pm48 °FPassing clouds.5 mph50%29.98 "HgN/A
3:30 pm48 °FPassing clouds.5 mph46%30.01 "HgN/A
3:00 pm48 °FSunny.6 mph50%30.01 "Hg10 mi
2:30 pm48 °FPassing clouds.7 mph50%30.01 "HgN/A
2:00 pm48 °FPassing clouds.8 mph54%30.04 "HgN/A
1:30 pm48 °FPassing clouds.10 mph54%30.07 "HgN/A
1:00 pm48 °FPassing clouds.12 mph54%30.07 "HgN/A
12:30 pm48 °FPartly sunny.12 mph54%30.07 "HgN/A
12:00 pm48 °FPartly sunny.13 mph54%30.07 "HgN/A
11:30 am48 °FPartly sunny.9 mph54%30.09 "HgN/A
11:00 am46 °FPartly sunny.9 mph57%30.09 "HgN/A
10:30 am46 °FPartly sunny.9 mph62%30.09 "HgN/A
10:00 am46 °FPartly sunny.10 mph62%30.09 "HgN/A
9:30 am46 °FPartly sunny.12 mph66%30.09 "HgN/A
9:00 am46 °FPartly sunny.13 mph66%30.09 "HgN/A
8:30 am45 °FPartly sunny.13 mph71%30.09 "HgN/A
8:00 am45 °FPartly sunny.12 mph71%30.09 "HgN/A
7:30 am45 °FPassing clouds.12 mph71%30.09 "HgN/A
7:00 am45 °FOvercast.13 mph71%30.07 "HgN/A
6:30 am45 °FOvercast.15 mph71%30.07 "HgN/A
6:00 am46 °FOvercast.18 mph66%30.07 "HgN/A
5:30 am46 °FPassing clouds.17 mph66%30.07 "HgN/A
5:00 am46 °FPassing clouds.21 mph66%30.07 "HgN/A
4:30 am46 °FClear.20 mph66%30.07 "Hg10 mi
4:00 am46 °FClear.17 mph66%30.07 "Hg10 mi
3:30 am46 °FClear.17 mph66%30.07 "Hg10 mi
3:00 am46 °FClear.15 mph66%30.07 "Hg10 mi
2:30 am46 °FPassing clouds.15 mph66%30.07 "HgN/A
2:00 am46 °FOvercast.16 mph71%30.07 "HgN/A
1:30 am46 °FOvercast.17 mph71%30.04 "HgN/A
1:00 am46 °FLight rain. Overcast.8 mph62%30.04 "HgN/A
12:30 am48 °FPassing clouds.10 mph50%30.04 "HgN/A
12:00 am48 °FPassing clouds.9 mph50%30.01 "HgN/A
11:30 pm
Fri, Dec 9
45 °FPassing clouds.6 mph66%30.01 "HgN/A
11:00 pm45 °FPassing clouds.5 mph66%30.01 "HgN/A
10:30 pm45 °FPassing clouds.2 mph71%30.01 "HgN/A
10:00 pm45 °FPassing clouds.3 mph66%30.04 "HgN/A
Weather by CustomWeather, © 2016

See weather overviewHow to use our weather pages